| time (UTC) | temp C | wind direction | speed KPH | gust KPH | rain 1hr cm | rain 24hr cm | rain mn cm | humidity % | barometer mb |
| 20260507165924 | 12 | 304 | 3.2 | 4.8 | 0.00 | 0.00 | 0.00 | 100 | 1045.0 |
| 20260507164923 | 12 | 270 | 3.2 | 3.2 | 0.00 | 0.00 | 0.00 | 100 | 1045.4 |
| 20260507163924 | 12 | 292 | 1.6 | 1.6 | 0.00 | 0.00 | 0.00 | 100 | 1045.4 |
| 20260507162023 | 11 | 315 | 6.4 | 6.4 | 0.00 | 0.00 | 0.00 | 100 | 1045.4 |
| 20260507160022 | 11 | 281 | 4.8 | 11.3 | 0.00 | 0.00 | 0.00 | 100 | 1045.7 |
| 20260507155024 | 11 | 297 | 1.6 | 3.2 | 0.00 | 0.00 | 0.00 | 100 | 1045.4 |
| 20260507154024 | 11 | 315 | 4.8 | 6.4 | 0.00 | 0.00 | 0.00 | 100 | 1045.4 |
| 20260507153025 | 11 | 281 | 3.2 | 3.2 | 0.00 | 0.00 | 0.00 | 100 | 1045.4 |
| 20260507152024 | 10 | 315 | 3.2 | 3.2 | 0.00 | 0.00 | 0.00 | 100 | 1045.7 |
| 20260507151122 | 10 | 292 | 3.2 | 4.8 | 0.00 | 0.00 | 0.00 | 100 | 1045.7 |
| 20260507144223 | 10 | 315 | 6.4 | 9.7 | 0.00 | 0.00 | 0.00 | 100 | 1045.7 |
| 20260507143223 | 10 | 315 | 8.0 | 11.3 | 0.00 | 0.00 | 0.00 | 100 | 1045.6 |
| 20260507142223 | 10 | 292 | 3.2 | 3.2 | 0.00 | 0.00 | 0.00 | 100 | 1045.7 |
| 20260507140226 | 10 | 315 | 6.4 | 6.4 | 0.00 | 0.00 | 0.00 | 100 | 1045.7 |
| 20260507135322 | 10 | 270 | 1.6 | 1.6 | 0.00 | 0.00 | 0.00 | 100 | 1045.7 |
| 20260507134323 | 10 | 270 | 3.2 | 3.2 | 0.00 | 0.00 | 0.00 | 100 | 1045.7 |
| 20260507133423 | 10 | 247 | 3.2 | 4.8 | 0.00 | 0.00 | 0.00 | 100 | 1045.7 |
| 20260507132422 | 10 | 292 | 4.8 | 6.4 | 0.00 | 0.00 | 0.00 | 100 | 1045.7 |
| 20260507131424 | 9 | 317 | 6.4 | 11.3 | 0.00 | 0.00 | 0.00 | 100 | 1045.7 |
| 20260507130425 | 8 | 299 | 3.2 | 6.4 | 0.00 | 0.00 | 0.00 | 100 | 1045.7 |
| 20260507125423 | 8 | 310 | 3.2 | 6.4 | 0.00 | 0.00 | 0.00 | 100 | 1045.4 |
| 20260507121523 | 8 | 304 | 4.8 | 9.7 | 0.00 | 0.00 | 0.00 | 100 | 1045.4 |
| 20260507114524 | 7 | 309 | 4.8 | 6.4 | 0.00 | 0.00 | 0.00 | 100 | 1045.4 |
| 20260507112525 | 6 | 297 | 1.6 | 6.4 | 0.00 | 0.00 | 0.00 | 100 | 1045.0 |
| 20260507111526 | 6 | 302 | 0.0 | 3.2 | 0.00 | 0.00 | 0.00 | 100 | 1045.0 |
| 20260507105722 | 5 | 315 | 0.0 | 0.0 | 0.00 | 0.00 | 0.00 | 100 | 1045.0 |
| 20260507104725 | 5 | 315 | 0.0 | 0.0 | 0.00 | 0.00 | 0.00 | 100 | 1044.6 |
| 20260507103823 | 5 | 315 | 0.0 | 0.0 | 0.00 | 0.00 | 0.00 | 100 | 1044.7 |
| 20260507102823 | 5 | 315 | 0.0 | 0.0 | 0.00 | 0.00 | 0.00 | 100 | 1044.7 |
| 20260507101824 | 5 | 315 | 0.0 | 0.0 | 0.00 | 0.00 | 0.00 | 100 | 1045.0 |
| 20260507100825 | 5 | 315 | 0.0 | 0.0 | 0.00 | 0.00 | 0.00 | 100 | 1045.0 |
| 20260507095923 | 5 | 315 | 0.0 | 0.0 | 0.00 | 0.00 | 0.00 | 100 | 1044.7 |
| 20260507094923 | 5 | 315 | 0.0 | 0.0 | 0.00 | 0.00 | 0.00 | 100 | 1045.0 |
| 20260507093925 | 5 | 315 | 0.0 | 0.0 | 0.00 | 0.00 | 0.00 | 100 | 1045.0 |
| 20260507093022 | 5 | 315 | 0.0 | 0.0 | 0.00 | 0.00 | 0.00 | 100 | 1045.0 |
| 20260507092924 | 5 | 315 | 0.0 | 0.0 | 0.00 | 0.00 | 0.00 | 100 | 1045.0 |
| 20260507092022 | 6 | 315 | 0.0 | 0.0 | 0.00 | 0.00 | 0.00 | 100 | 1044.7 |
| 20260507091023 | 6 | 315 | 0.0 | 3.2 | 0.00 | 0.00 | 0.00 | 100 | 1044.7 |
| 20260507090028 | 6 | 315 | 0.0 | 0.0 | 0.00 | 0.00 | 0.00 | 100 | 1044.6 |
| 20260507085022 | 6 | 315 | 0.0 | 3.2 | 0.00 | 0.00 | 0.00 | 100 | 1044.6 |
| 20260507084025 | 6 | 315 | 1.6 | 3.2 | 0.00 | 0.00 | 0.00 | 100 | 1044.7 |
| 20260507082223 | 7 | 315 | 0.0 | 0.0 | 0.00 | 0.00 | 0.00 | 100 | 1044.6 |
| 20260507081226 | 7 | 315 | 1.6 | 3.2 | 0.00 | 0.00 | 0.00 | 100 | 1044.6 |
| 20260507080223 | 7 | 360 | 1.6 | 3.2 | 0.00 | 0.00 | 0.00 | 100 | 1044.3 |
| 20260507075223 | 7 | 315 | 3.2 | 4.8 | 0.00 | 0.00 | 0.00 | 100 | 1044.6 |
| 20260507074224 | 6 | 270 | 0.0 | 0.0 | 0.00 | 0.00 | 0.00 | 100 | 1044.3 |
| 20260507073223 | 6 | 270 | 0.0 | 0.0 | 0.00 | 0.00 | 0.00 | 100 | 1044.0 |
| 20260507072224 | 7 | 270 | 0.0 | 0.0 | 0.00 | 0.00 | 0.00 | 100 | 1044.0 |
| 20260507071225 | 7 | 270 | 0.0 | 0.0 | 0.00 | 0.00 | 0.00 | 100 | 1043.9 |
| 20260507070323 | 7 | 315 | 0.0 | 0.0 | 0.00 | 0.00 | 0.00 | 100 | 1044.3 |
| 20260507065323 | 7 | 293 | 1.6 | 3.2 | 0.00 | 0.00 | 0.00 | 100 | 1044.3 |
| 20260507063423 | 7 | 317 | 3.2 | 8.0 | 0.00 | 0.00 | 0.00 | 100 | 1044.3 |
| 20260507061523 | 7 | 310 | 9.7 | 17.7 | 0.00 | 0.00 | 0.00 | 100 | 1044.0 |
| 20260507060622 | 7 | 315 | 9.7 | 14.5 | 0.00 | 0.00 | 0.00 | 100 | 1044.0 |
| 20260507055623 | 8 | 286 | 6.4 | 11.3 | 0.00 | 0.00 | 0.00 | 100 | 1044.0 |
| 20260507054722 | 7 | 309 | 4.8 | 8.0 | 0.00 | 0.00 | 0.00 | 100 | 1043.9 |
| 20260507053723 | 7 | 310 | 1.6 | 4.8 | 0.00 | 0.00 | 0.00 | 100 | 1043.9 |
| 20260507053623 | 7 | 328 | 4.8 | 12.9 | 0.00 | 0.00 | 0.00 | 100 | 1044.0 |
| 20260507053523 | 7 | 315 | 3.2 | 6.4 | 0.00 | 0.00 | 0.00 | 100 | 1043.9 |
| 20260507052523 | 7 | 315 | 9.7 | 11.3 | 0.00 | 0.00 | 0.00 | 100 | 1043.9 |
| 20260507051622 | 8 | 296 | 0.0 | 3.2 | 0.00 | 0.00 | 0.00 | 100 | 1043.6 |
| 20260507050623 | 8 | 287 | 1.6 | 3.2 | 0.00 | 0.00 | 0.00 | 100 | 1043.6 |
| 20260507045722 | 8 | 307 | 3.2 | 6.4 | 0.00 | 0.00 | 0.00 | 100 | 1044.0 |
| 20260507044724 | 8 | 311 | 4.8 | 8.0 | 0.00 | 0.00 | 0.00 | 100 | 1043.9 |
| 20260507042722 | 8 | 315 | 6.4 | 11.3 | 0.00 | 0.00 | 0.00 | 100 | 1043.9 |
| 20260507041738 | 8 | 300 | 3.2 | 3.2 | 0.00 | 0.00 | 0.00 | 100 | 1043.9 |
| 20260507035817 | 8 | 280 | 3.2 | 6.4 | 0.00 | 0.00 | 0.00 | 100 | 1044.0 |
| 20260507034817 | 8 | 270 | 8.0 | 11.3 | 0.00 | 0.00 | 0.00 | 100 | 1044.0 |
| 20260507033817 | 8 | 292 | 1.6 | 6.4 | 0.00 | 0.00 | 0.00 | 100 | 1043.9 |
| 20260507031818 | 8 | 292 | 3.2 | 8.0 | 0.00 | 0.00 | 0.00 | 100 | 1044.0 |
| 20260507025917 | 9 | 308 | 8.0 | 11.3 | 0.00 | 0.00 | 0.00 | 100 | 1044.0 |
| 20260507025816 | 9 | 312 | 6.4 | 11.3 | 0.00 | 0.00 | 0.00 | 100 | 1044.0 |
| 20260507024817 | 9 | 285 | 9.7 | 17.7 | 0.00 | 0.00 | 0.00 | 100 | 1043.9 |
| 20260507023817 | 9 | 300 | 8.0 | 9.7 | 0.00 | 0.00 | 0.00 | 100 | 1043.9 |
| 20260507022916 | 9 | 309 | 9.7 | 14.5 | 0.00 | 0.00 | 0.00 | 100 | 1043.9 |
| 20260507020916 | 10 | 315 | 8.0 | 12.9 | 0.00 | 0.00 | 0.00 | 100 | 1043.9 |
| 20260507014017 | 11 | 274 | 9.7 | 12.9 | 0.00 | 0.00 | 0.00 | 100 | 1043.6 |
| 20260507013017 | 11 | 292 | 8.0 | 9.7 | 0.00 | 0.00 | 0.00 | 100 | 1043.6 |
| 20260507012018 | 11 | 315 | 3.2 | 6.4 | 0.00 | 0.00 | 0.00 | 100 | 1043.3 |
| 20260507011116 | 11 | 304 | 3.2 | 4.8 | 0.00 | 0.00 | 0.00 | 100 | 1043.4 |
| 20260507005120 | 12 | 315 | 1.6 | 1.6 | 0.00 | 0.00 | 0.00 | 100 | 1043.3 |
| 20260507004120 | 12 | 281 | 3.2 | 3.2 | 0.00 | 0.00 | 0.00 | 100 | 1043.3 |
| 20260507000219 | 13 | 225 | 11.3 | 11.3 | 0.00 | 0.00 | 0.00 | 100 | 1042.9 |
| 20260506235221 | 14 | 265 | 6.4 | 8.0 | 0.00 | 0.00 | 0.00 | 100 | 1042.9 |
| 20260506234320 | 14 | 296 | 12.9 | 14.5 | 0.00 | 0.00 | 0.00 | 100 | 1042.9 |
| 20260506233320 | 14 | 307 | 8.0 | 9.7 | 0.00 | 0.00 | 0.00 | 100 | 1042.6 |
| 20260506232321 | 13 | 225 | 8.0 | 8.0 | 0.00 | 0.00 | 0.00 | 100 | 1042.6 |
| 20260506231320 | 13 | 208 | 1.6 | 3.2 | 0.00 | 0.00 | 0.00 | 100 | 1042.6 |
| 20260506230321 | 13 | 270 | 1.6 | 1.6 | 0.00 | 0.00 | 0.00 | 100 | 1042.6 |
| 20260506225419 | 13 | 270 | 1.6 | 3.2 | 0.00 | 0.00 | 0.00 | 100 | 1042.6 |
| 20260506224420 | 13 | 225 | 3.2 | 6.4 | 0.00 | 0.00 | 0.00 | 100 | 1042.5 |
| 20260506223434 | 13 | 238 | 3.2 | 6.4 | 0.00 | 0.00 | 0.00 | 100 | 1042.5 |
| 20260506222519 | 12 | 202 | 3.2 | 6.4 | 0.00 | 0.00 | 0.00 | 100 | 1042.7 |
| 20260506220519 | 13 | 180 | 8.0 | 11.3 | 0.00 | 0.00 | 0.00 | 100 | 1042.9 |
| 20260506215618 | 13 | 202 | 3.2 | 3.2 | 0.00 | 0.00 | 0.00 | 100 | 1042.9 |
| 20260506214620 | 13 | 180 | 6.4 | 6.4 | 0.00 | 0.00 | 0.00 | 100 | 1042.9 |
| 20260506213620 | 13 | 203 | 6.4 | 11.3 | 0.00 | 0.00 | 0.00 | 100 | 1043.3 |
| 20260506212619 | 13 | 180 | 11.3 | 14.5 | 0.00 | 0.00 | 0.00 | 100 | 1043.3 |
| 20260506211619 | 13 | 180 | 4.8 | 4.8 | 0.00 | 0.00 | 0.00 | 100 | 1043.3 |
| 20260506205620 | -17 | 0 | 0.0 | 0.0 | 0.00 | 0.00 | 0.00 | 100 | |
| 20260506202721 | 13 | 180 | 0.0 | 0.0 | 0.00 | 0.00 | 0.00 | 100 | 1043.9 |
| 20260506201719 | 13 | 180 | 0.0 | 0.0 | 0.00 | 0.00 | 0.00 | 100 | 1043.9 |
| 20260506200718 | 13 | 180 | 0.0 | 0.0 | 0.00 | 0.00 | 0.00 | 100 | 1043.9 |
| 20260506195718 | -17 | 0 | 0.0 | 0.0 | 0.00 | 0.00 | 0.00 | 100 | |
| 20260506194733 | -17 | 0 | 0.0 | 0.0 | 0.00 | 0.00 | 0.00 | 100 | |
| 20260506193816 | -17 | 0 | 0.0 | 0.0 | 0.00 | 0.00 | 0.00 | 100 | |
| 20260506192829 | 13 | 225 | 1.6 | 1.6 | 0.00 | 0.00 | 0.00 | 100 | 1044.7 |
| 20260506191928 | 13 | 180 | 6.4 | 6.4 | 0.00 | 0.00 | 0.00 | 100 | 1044.7 |
| 20260506190930 | 13 | 180 | 6.4 | 6.4 | 0.00 | 0.00 | 0.00 | 100 | 1044.7 |
| 20260506185927 | -17 | 0 | 0.0 | 0.0 | 0.00 | 0.00 | 0.00 | 100 | |
| 20260506184943 | -17 | 0 | 0.0 | 0.0 | 0.00 | 0.00 | 0.00 | 100 | |
| 20260506183927 | -17 | 0 | 0.0 | 0.0 | 0.00 | 0.00 | 0.00 | 100 | |
| 20260506182926 | -17 | 0 | 0.0 | 0.0 | 0.00 | 0.00 | 0.00 | 100 | |
| 20260506182024 | -17 | 0 | 0.0 | 0.0 | 0.00 | 0.00 | 0.00 | 100 | |
| 20260506181026 | -17 | 0 | 0.0 | 0.0 | 0.00 | 0.00 | 0.00 | 100 | |
| 20260506180024 | -17 | 0 | 0.0 | 0.0 | 0.00 | 0.00 | 0.00 | 100 | |
| 20260506175924 | -17 | 0 | 0.0 | 0.0 | 0.00 | 0.00 | 0.00 | 100 | |
| 20260506174924 | -17 | 0 | 0.0 | 0.0 | 0.00 | 0.00 | 0.00 | 100 | |
| 20260506173924 | -17 | 0 | 0.0 | 0.0 | 0.00 | 0.00 | 0.00 | 100 | |
| 20260506173023 | -17 | 0 | 0.0 | 0.0 | 0.00 | 0.00 | 0.00 | 100 | |
| 20260506172042 | -17 | 0 | 0.0 | 0.0 | 0.00 | 0.00 | 0.00 | 100 | |
| 20260506171022 | -17 | 0 | 0.0 | 0.0 | 0.00 | 0.00 | 0.00 | 100 |